Time,TemperatureF,DewpointF,PressureIn,WindDirection,WindDirectionDegrees,WindSpeedMPH,WindSpeedGustMPH,Humidity,HourlyPrecipIn,Conditions,Clouds,dailyrainin,SoftwareType,DateUTC
2013-03-13 00:09:00,50.4,-46.7,29.71,NW,315,3.7,-999.0,0,-99.99,,,0.00,Acu-Link.com,2013-03-13 04:09:00,
2013-03-13 00:37:00,44.2,-50.5,29.70,NNE,22,9.4,-999.0,0,-99.99,,,0.00,Acu-Link.com,2013-03-13 04:37:00,
2013-03-13 00:56:00,35.6,-55.8,29.72,North,0,6.3,-999.0,0,-99.99,,,0.00,Acu-Link.com,2013-03-13 04:56:00,
2013-03-13 01:14:00,35.6,-55.8,29.71,NNE,22,4.2,-999.0,0,-99.99,,,0.00,Acu-Link.com,2013-03-13 05:14:00,
2013-03-13 01:32:00,34.0,-56.8,29.71,NNE,22,5.8,-999.0,0,-99.99,,,0.00,Acu-Link.com,2013-03-13 05:32:00,
2013-03-13 01:57:00,33.6,-57.1,29.71,NNE,22,9.4,-999.0,0,-99.99,,,0.00,Acu-Link.com,2013-03-13 05:57:00,
2013-03-13 02:20:00,33.4,-57.2,29.71,NNE,22,5.3,-999.0,0,-99.99,,,0.00,Acu-Link.com,2013-03-13 06:20:00,
2013-03-13 03:00:00,32.7,-57.6,29.71,NNW,337,7.8,-999.0,0,-99.99,,,0.00,Acu-Link.com,2013-03-13 07:00:00,
2013-03-13 03:21:00,32.7,-57.6,29.70,NNW,337,12.5,-999.0,0,-99.99,,,0.00,Acu-Link.com,2013-03-13 07:21:00,
2013-03-13 03:36:00,34.9,-56.3,29.71,West,270,5.8,-999.0,0,-99.99,,,0.00,Acu-Link.com,2013-03-13 07:36:00,
2013-03-13 04:23:00,35.1,-56.1,29.69,NNW,337,7.3,-999.0,0,-99.99,,,0.00,Acu-Link.com,2013-03-13 08:23:00,
2013-03-13 04:38:00,35.6,-55.8,29.69,NW,315,5.3,-999.0,0,-99.99,,,0.00,Acu-Link.com,2013-03-13 08:38:00,
2013-03-13 04:54:00,35.1,-56.1,29.71,West,270,6.3,-999.0,0,-99.99,,,0.00,Acu-Link.com,2013-03-13 08:54:00,
2013-03-13 05:09:00,35.6,-55.8,29.71,East,90,3.2,-999.0,0,-99.99,,,0.00,Acu-Link.com,2013-03-13 09:09:00,
2013-03-13 05:24:00,35.6,-55.8,29.70,North,0,4.2,-999.0,0,-99.99,,,0.00,Acu-Link.com,2013-03-13 09:24:00,
2013-03-13 05:39:00,34.0,-56.8,29.72,NNW,337,3.2,-999.0,0,-99.99,,,0.00,Acu-Link.com,2013-03-13 09:39:00,
2013-03-13 05:54:00,33.8,-56.9,29.70,North,0,2.2,-999.0,0,-99.99,,,0.00,Acu-Link.com,2013-03-13 09:54:00,
2013-03-13 06:09:00,34.0,-56.8,29.72,NNW,337,3.2,-999.0,0,-99.99,,,0.00,Acu-Link.com,2013-03-13 10:09:00,
2013-03-13 06:25:00,34.3,-56.6,29.71,NNE,22,1.7,-999.0,0,-99.99,,,0.00,Acu-Link.com,2013-03-13 10:25:00,
2013-03-13 06:40:00,34.3,-56.6,29.70,NW,315,0.0,-999.0,0,-99.99,,,0.00,Acu-Link.com,2013-03-13 10:40:00,
2013-03-13 06:55:00,34.3,-56.6,29.72,NNE,22,0.0,-999.0,0,-99.99,,,0.00,Acu-Link.com,2013-03-13 10:55:00,
2013-03-13 07:11:00,34.2,-56.7,29.72,NE,45,0.0,-999.0,0,-99.99,,,0.00,Acu-Link.com,2013-03-13 11:11:00,
2013-03-13 08:11:00,35.8,-55.7,29.70,NW,315,1.1,-999.0,0,-99.99,,,0.00,Acu-Link.com,2013-03-13 12:11:00,
2013-03-13 08:26:00,36.0,-55.6,29.70,North,0,1.1,-999.0,0,-99.99,,,0.00,Acu-Link.com,2013-03-13 12:26:00,
2013-03-13 08:41:00,35.1,-56.1,29.69,NNW,337,2.7,-999.0,0,-99.99,,,0.00,Acu-Link.com,2013-03-13 12:41:00,
2013-03-13 09:11:00,34.5,-56.5,29.69,NW,315,1.7,-999.0,0,-99.99,,,0.00,Acu-Link.com,2013-03-13 13:11:00,
2013-03-13 09:27:00,32.9,-57.5,29.69,WNW,292,1.7,-999.0,0,-99.99,,,0.00,Acu-Link.com,2013-03-13 13:27:00,
2013-03-13 09:42:00,32.4,-57.8,29.70,NW,315,4.7,-999.0,0,-99.99,,,0.00,Acu-Link.com,2013-03-13 13:42:00,
2013-03-13 09:57:00,32.9,-57.5,29.69,NNE,22,2.2,-999.0,0,-99.99,,,0.00,Acu-Link.com,2013-03-13 13:57:00,
2013-03-13 10:12:00,32.7,-57.6,29.69,NW,315,5.3,-999.0,0,-99.99,,,0.00,Acu-Link.com,2013-03-13 14:12:00,
2013-03-13 10:28:00,32.9,-57.5,29.71,NNW,337,6.3,-999.0,0,-99.99,,,0.00,Acu-Link.com,2013-03-13 14:28:00,
2013-03-13 10:44:00,34.5,-56.5,29.70,NNW,337,2.2,-999.0,0,-99.99,,,0.00,Acu-Link.com,2013-03-13 14:44:00,
2013-03-13 11:00:00,33.6,-57.1,29.70,NNW,337,9.9,-999.0,0,-99.99,,,0.00,Acu-Link.com,2013-03-13 15:00:00,
2013-03-13 11:15:00,35.4,-56.0,29.70,West,270,10.4,-999.0,0,-99.99,,,0.00,Acu-Link.com,2013-03-13 15:15:00,
2013-03-13 11:34:00,34.9,-56.3,29.71,West,270,8.9,-999.0,0,-99.99,,,0.00,Acu-Link.com,2013-03-13 15:34:00,
2013-03-13 11:50:00,34.5,-56.5,29.70,West,270,5.3,-999.0,0,-99.99,,,0.00,Acu-Link.com,2013-03-13 15:50:00,
2013-03-13 12:12:00,34.0,-56.8,29.71,West,270,9.4,-999.0,0,-99.99,,,0.00,Acu-Link.com,2013-03-13 16:12:00,
2013-03-13 12:40:00,34.0,-56.8,29.69,East,90,9.9,-999.0,0,-99.99,,,0.00,Acu-Link.com,2013-03-13 16:40:00,
2013-03-13 13:04:00,38.3,-54.2,29.70,WNW,292,5.3,-999.0,0,-99.99,,,0.00,Acu-Link.com,2013-03-13 17:04:00,
2013-03-13 13:26:00,37.6,-54.6,29.71,West,270,9.4,-999.0,0,-99.99,,,0.00,Acu-Link.com,2013-03-13 17:26:00,
2013-03-13 13:43:00,37.6,-54.6,29.70,West,270,7.3,-999.0,0,-99.99,,,0.00,Acu-Link.com,2013-03-13 17:43:00,
2013-03-13 13:58:00,35.8,-55.7,29.70,West,270,4.2,-999.0,0,-99.99,,,0.00,Acu-Link.com,2013-03-13 17:58:00,
2013-03-13 14:22:00,37.0,-55.0,29.69,North,0,1.7,-999.0,0,-99.99,,,0.00,Acu-Link.com,2013-03-13 18:22:00,
2013-03-13 14:38:00,37.0,-55.0,29.68,West,270,7.8,-999.0,0,-99.99,,,0.00,Acu-Link.com,2013-03-13 18:38:00,
2013-03-13 14:53:00,36.0,-7.1,29.67,NW,315,7.3,-999.0,15,-99.99,,,0.00,Acu-Link.com,2013-03-13 18:53:00,
2013-03-13 15:48:00,34.9,-1.0,29.67,NNW,337,1.7,-999.0,21,-99.99,,,0.00,Acu-Link.com,2013-03-13 19:48:00,
2013-03-13 16:04:00,36.0,0.9,29.68,NNW,337,3.2,-999.0,22,-99.99,,,0.00,Acu-Link.com,2013-03-13 20:04:00,
2013-03-13 16:41:00,36.7,3.4,29.67,NNW,337,2.7,-999.0,24,-99.99,,,0.00,Acu-Link.com,2013-03-13 20:41:00,
2013-03-13 16:57:00,38.8,-1.0,29.66,NW,315,1.1,-999.0,18,-99.99,,,0.00,Acu-Link.com,2013-03-13 20:57:00,
2013-03-13 17:31:00,39.6,-0.4,29.65,NNW,337,2.7,-999.0,18,-99.99,,,0.00,Acu-Link.com,2013-03-13 21:31:00,
2013-03-13 17:46:00,36.0,1.8,29.66,NNE,22,2.7,-999.0,23,-99.99,,,0.00,Acu-Link.com,2013-03-13 21:46:00,
2013-03-13 18:10:00,35.1,5.3,29.67,NNW,337,3.2,-999.0,28,-99.99,,,0.00,Acu-Link.com,2013-03-13 22:10:00,
2013-03-13 21:29:00,30.6,10.8,29.70,West,270,2.2,-999.0,43,-99.99,,,0.00,Acu-Link.com,2013-03-14 01:29:00,
2013-03-13 21:48:00,28.8,15.1,29.70,West,270,5.8,-999.0,56,-99.99,,,0.00,Acu-Link.com,2013-03-14 01:48:00,
2013-03-13 23:53:00,27.5,-6.3,29.69,NNW,337,1.7,-999.0,22,-99.99,,,0.00,Acu-Link.com,2013-03-14 03:53:00,